Location: Gila Cliff Dwellings National Monument
(33.2240°N, 108.2417°W)
Time: 18:36:52
(UTC-07:00)

Cosmos 2322 Rocket - Visible Passes

Search period start: 24 November 2014 00:00
Search period end: 04 December 2014 00:00
Orbit: 831 x 853 km, 71.0° (Epoch: 24 November)

Date Brightness Start Highest point End Pass type
(mag) Time Alt. Az. Time Alt. Az. Time Alt. Az.
24 Nov 3.9 18:15:27 10° NNE 18:17:06 14° NE 18:17:06 14° NE visible
24 Nov 4.3 19:57:35 10° NNW 19:58:59 18° NNW 19:58:59 18° NNW visible
25 Nov 3.7 18:00:42 10° NNE 18:03:43 14° NE 18:03:43 14° NE visible
25 Nov 3.5 19:42:38 10° NNW 19:45:38 32° NNW 19:45:38 32° NNW visible
26 Nov 3.8 17:45:58 10° NNE 17:48:46 14° NE 17:50:54 11° ENE visible
26 Nov 2.4 19:27:42 10° NNW 19:32:53 69° WNW 19:32:53 69° WNW visible
27 Nov 3.8 17:31:16 10° NNE 17:33:48 13° NE 17:36:18 10° E visible
27 Nov 2.2 19:12:46 10° NNW 19:18:28 79° WSW 19:21:52 25° SSE visible
28 Nov 2.2 18:57:50 10° NNW 19:03:33 83° WSW 19:09:12 10° SSE visible
29 Nov 2.1 18:42:55 10° NNW 18:48:38 88° WSW 18:54:17 10° SSE visible
30 Nov 2.1 18:27:59 10° NNW 18:33:42 88° ENE 18:39:22 10° SSE visible
01 Dec 2.1 18:13:03 10° NNW 18:18:47 83° ENE 18:24:26 10° SSE visible
02 Dec 2.1 17:58:08 10° NNW 18:03:51 79° ENE 18:09:30 10° SSE visible
02 Dec 5.4 19:46:32 10° W 19:47:04 10° W 19:47:36 10° WSW visible
03 Dec 2.2 17:43:13 10° NNW 17:48:55 75° ENE 17:54:33 10° SSE visible
03 Dec 5.4 19:30:44 10° W 19:32:11 11° W 19:33:37 10° WSW visible
